TimePDT,TemperatureF,Dew PointF,Humidity,Sea Level PressureIn,VisibilityMPH,Wind Direction,Wind SpeedMPH,Gust SpeedMPH,PrecipitationIn,Events,Conditions,WindDirDegrees,DateUTC
12:52 AM,61.0,53.1,75,30.02,9.0,Calm,Calm,-,0.01,,Clear,0,2012-10-29 07:52:00
1:52 AM,60.1,53.1,78,30.02,10.0,Calm,Calm,-,N/A,,Clear,0,2012-10-29 08:52:00
2:52 AM,59.0,52.0,78,30.01,10.0,Calm,Calm,-,N/A,,Clear,0,2012-10-29 09:52:00
3:52 AM,57.9,45.0,62,30.00,10.0,Calm,Calm,-,N/A,,Clear,0,2012-10-29 10:52:00
4:52 AM,57.9,41.0,53,30.00,10.0,Calm,Calm,-,N/A,,Clear,0,2012-10-29 11:52:00
5:52 AM,60.1,43.0,53,30.02,10.0,North,4.6,-,N/A,,Clear,350,2012-10-29 12:52:00
6:52 AM,57.9,42.1,56,30.03,10.0,NE,3.5,-,N/A,,Clear,50,2012-10-29 13:52:00
7:52 AM,61.0,45.0,56,30.04,10.0,Calm,Calm,-,N/A,,Partly Cloudy,0,2012-10-29 14:52:00
8:52 AM,64.9,44.1,47,30.07,10.0,NW,3.5,-,N/A,,Partly Cloudy,320,2012-10-29 15:52:00
9:52 AM,73.0,44.1,35,30.07,10.0,Calm,Calm,-,N/A,,Partly Cloudy,0,2012-10-29 16:52:00
10:52 AM,75.9,39.0,26,30.06,10.0,Calm,Calm,-,N/A,,Partly Cloudy,0,2012-10-29 17:52:00
11:52 AM,79.0,51.1,38,30.06,10.0,West,6.9,-,N/A,,Partly Cloudy,280,2012-10-29 18:52:00
12:52 PM,78.1,48.0,35,30.03,10.0,West,3.5,-,N/A,,Partly Cloudy,280,2012-10-29 19:52:00
1:52 PM,79.0,48.9,35,30.01,10.0,WSW,4.6,-,N/A,,Scattered Clouds,250,2012-10-29 20:52:00
2:52 PM,75.0,57.9,55,30.01,10.0,West,6.9,-,N/A,,Scattered Clouds,270,2012-10-29 21:52:00
3:52 PM,70.0,59.0,68,30.01,10.0,WNW,8.1,-,N/A,,Scattered Clouds,290,2012-10-29 22:52:00
4:52 PM,70.0,57.9,65,30.01,10.0,Variable,4.6,-,N/A,,Scattered Clouds,0,2012-10-29 23:52:00
5:52 PM,69.1,57.0,65,30.01,10.0,Calm,Calm,-,N/A,,Scattered Clouds,0,2012-10-30 00:52:00
6:52 PM,66.0,57.0,73,30.03,10.0,Calm,Calm,-,N/A,,Scattered Clouds,0,2012-10-30 01:52:00
7:52 PM,64.0,57.9,80,30.04,3.0,NNW,8.1,-,N/A,,Mostly Cloudy,340,2012-10-30 02:52:00
8:52 PM,61.0,57.9,90,30.04,0.8,North,6.9,-,N/A,,Overcast,360,2012-10-30 03:52:00
9:02 PM,60.8,57.2,88,30.05,2.0,North,6.9,-,N/A,,Overcast,350,2012-10-30 04:02:00
9:38 PM,60.8,57.2,88,30.05,0.2,North,5.8,-,N/A,Fog,Fog,350,2012-10-30 04:38:00
9:52 PM,61.0,57.9,90,30.06,0.2,NNW,3.5,-,N/A,Fog,Fog,340,2012-10-30 04:52:00
10:52 PM,60.1,57.9,93,30.06,0.2,Calm,Calm,-,N/A,Fog,Fog,0,2012-10-30 05:52:00
11:52 PM,61.0,57.0,87,30.06,0.2,Variable,3.5,-,N/A,Fog,Fog,0,2012-10-30 06:52:00